STARLINK-3151, 49408

Orbit data source: Space-Track

STARLINK-3151, 49408 is a payload satellite owned by SpaceX/Seattle (US) in LEO that was launched on Sat, 13 Nov 2021 UTC via an FALCON 9 launch vehicle from the Air Force Eastern Test Range (AFETR). Payload-class satellites include a variety of spacecraft equipped with specific instruments for various scientific and technological missions. These include communications satellites like Starlink; space stations such as the ISS; scientific satellites like the Hubble; Earth observation satellites from companies like Planet Labs, Umbra, and HawkEye 360; GPS; miniature CubeSats for education and research; and military/defense satellites.

Not visible in the next 10 days
Identifier
49408, 2021-104A
Orbit
LEO
Country
Flag of USUS
Related business
Manufacturer
SpaceX/Seattle
Mission
Partially operational Commercial Communications
Bus & Motor
STARLINK, Unknown motor
Mass
290 kg wet, ~270 kg dry
Launch date (UTC)
2021-11-13 (5 years ago)
Launch vehicle
FALCON 9
Launch site
Air Force Eastern Test Range (AFETR)
Object type
Payload
Rocket body
Debris
Shape & HBR
Box + 1 Pan, 10.1 m
Radar Cross Section
13.562 m², Large (>1 m²)

Expand to show TLE details & history
Last TLE update: 1 week ago

TLE from 1 week ago
0 STARLINK-3151
1 49408U 21104A   26155.33356481  .00845401  33198-3  19098-2 0  9993
2 49408  53.2109 164.8055 0001390  79.5414  81.8833 15.97084190  5807
Epoch: 2026-06-04T08:00Z
TLE epoch observation values (Epoch: 2026-06-04T08:00:19.999Z)
Latitude
14.77979°
Longitude
-39.3706°
Altitude
282.587 km
Speed
7.741 km/s
True Right ascension
22h 13m 58s
True Declination
14° 41' 21"
Sunlit
Object was in daylight at epoch
Visualization orbit readout
Latitude
Unknown
Longitude
Unknown
Altitude
Unknown
Speed
Unknown
Apparent Right ascension
Unknown
Apparent Declination
Unknown
Sunlit
N/A
Visualization observer readout
Local Sidereal Time
13:25:04
Azimuth
Unknown
Elevation
Unknown
Doppler factor
Unknown
Orbital elements
Apogee altitude
283.694 km
Perigee altitude
281.843 km
Semi-major axis
6,660.905 km
Eccentricity
0.00014
Inclination
53.2109°
RAAN
164.8055°
Arg. of periapsis
79.5414°
True anomaly
81.89907°
Mean anomaly
81.8833°
Eccentric anomaly
81.89118°
Mean motion
3.99248 °/min
Orbital period
90.17 mins
BSTAR
0.0019098
Loading maneuver chart data...
Computing Atmospheric mass density...
Loading historical data...
Loading historical data...
Loading historical data...
Loading historical data...
Loading historical data...
Loading historical data...
Loading historical data...

Documentation

Showing up to 5 results
|